[[{"header":{"parameterUnit":"m.s-1","parameterCategory":1,"la1":30.2992,"la2":30.254,"lo1":-89.0895,"lo2":-89.0443,"dy":0.0025,"dx":0.0025,"nx":19,"ny":19,"refTime":"2026-04-12T21:00:00:Z","depth":0,"parameterNumber":2,"parameterNumberName":"U-component_of_WINDS"},"data":[0,0,0,-1.6887,-1.6889,-1.7001,-1.7001,-1.7135,-1.7136,0,0,0,0,0,0,0,0,0,0,0,-1.6848,-1.6848,-1.6887,-1.689,-1.7,-1.7001,-1.7135,-1.7136,0,0,0,0,0,0,0,0,0,0,0,-1.6847,-1.6848,-1.6849,-1.689,-1.7,-1.7001,-1.7134,-1.7054,0,0,0,0,0,0,0,0,0,0,-1.6948,-1.6904,-1.6848,-1.6849,-1.6891,-1.7,-1.7001,-1.705,-1.7059,-1.7081,0,-1.7096,0,-1.7118,-1.7144,-1.7145,0,0,0,-1.6895,-1.6897,-1.6933,-1.6849,-1.6892,-1.7,-1.6952,-1.7055,-1.7065,-1.7092,-1.7098,-1.7104,-1.712,-1.7145,-1.7146,-1.7247,-1.7247,0,0,-1.6889,-1.6865,-1.6926,-1.6939,-1.6919,-1.6948,-1.6955,-1.7061,-1.7067,-1.7099,-1.7107,-1.7123,-1.7146,-1.7147,-1.7247,-1.7247,0,0,0,-1.6868,-1.686,-1.6893,-1.6933,-1.6953,-1.6951,-1.696,-1.7063,-1.7076,-1.7109,-1.7124,-1.7147,-1.7148,-1.7247,-1.7247,-1.7233,0,0,0,-1.6864,-1.6848,-1.689,-1.6877,-1.6951,-1.7009,-1.6958,-1.7068,-1.7081,-1.7123,-1.7147,-1.7149,-1.7247,-1.7247,-1.7233,-1.723,0,0,0,-1.6843,-1.6845,-1.6859,-1.6875,-1.6922,-1.7008,-1.7027,-1.7071,-1.709,-1.7145,-1.715,-1.7247,-1.7247,-1.7233,-1.723,-1.7249,0,0,0,-1.6813,-1.6845,-1.6858,-1.69,-1.692,-1.6998,-1.7027,-1.7086,-1.7131,-1.7147,-1.7247,-1.7247,-1.7233,-1.723,-1.7249,-1.726,-1.7262,0,0,-1.684,-1.6848,-1.6875,-1.6889,-1.6957,-1.6983,-1.705,-1.7116,-1.7145,-1.7212,-1.7215,-1.7233,-1.723,-1.7249,-1.7285,-1.7287,0,0,0,-1.6875,-1.6894,-1.6917,-1.6958,-1.7008,-1.7051,-1.7108,-1.7133,-1.7191,-1.7173,-1.7246,-1.7245,-1.7257,-1.7264,-1.7265,-1.7277,-1.7249,-1.7249,-1.7249,-1.6878,-1.6911,-1.6958,-1.7005,-1.7045,-1.7103,-1.7139,-1.7182,-1.7206,-1.7223,-1.7243,-1.726,-1.7267,-1.7268,-1.728,-1.7252,-1.7252,-1.7252,-1.7252,-1.692,-1.6952,-1.6981,-1.7037,-1.7073,-1.7121,-1.718,-1.7195,-1.7246,-1.7248,-1.7261,-1.726,-1.7269,-1.7281,-1.7251,-1.7251,-1.7251,-1.7251,-1.7252,-1.6925,-1.6946,-1.6974,-1.7036,-1.7081,-1.7129,-1.7175,-1.7208,-1.7238,-1.7251,-1.7275,-1.7275,-1.7279,-1.726,-1.726,-1.726,-1.726,-1.726,-1.726,-1.6918,-1.6951,-1.6985,-1.704,-1.7071,-1.7115,-1.7175,-1.7206,-1.725,-1.7269,-1.727,-1.7291,-1.7263,-1.7255,-1.7261,-1.7261,-1.7261,-1.7261,-1.7261,-1.6947,-1.6946,-1.6999,-1.7029,-1.7097,-1.7139,-1.7179,-1.724,-1.7271,-1.7294,-1.7313,-1.7287,-1.7298,-1.7297,-1.729,-1.7306,-1.7306,-1.7306,-1.7306,-1.6951,-1.6959,-1.702,-1.7066,-1.7116,-1.7157,-1.7218,-1.7265,-1.7314,-1.7335,-1.7338,-1.7333,-1.733,-1.7342,-1.7341,-1.7335,-1.7361,-1.7361,-1.7361,-1.6971,-1.6985,-1.7029,-1.7075,-1.713,-1.7177,-1.7235,-1.7289,-1.7345,-1.7364,-1.7353,-1.7351,-1.7342,-1.7337,-1.7355,-1.7352,-1.7342,0,0]},{"header":{"parameterUnit":"m.s-1","parameterCategory":1,"la1":30.2992,"la2":30.254,"lo1":-89.0895,"lo2":-89.0443,"dy":0.0025,"dx":0.0025,"nx":19,"ny":19,"refTime":"2026-04-12T21:00:00:Z","depth":0,"parameterNumber":3,"parameterNumberName":"V-component_of_WINDS"},"data":[0,0,0,3.4144,3.4145,3.4189,3.4189,3.4252,3.4252,0,0,0,0,0,0,0,0,0,0,0,3.4137,3.4138,3.4144,3.4145,3.4188,3.4189,3.4252,3.4252,0,0,0,0,0,0,0,0,0,0,0,3.4137,3.4137,3.4138,3.4145,3.4188,3.4189,3.4252,3.4216,0,0,0,0,0,0,0,0,0,0,3.4172,3.4172,3.4137,3.4138,3.4146,3.4188,3.4189,3.4214,3.4218,3.4236,0,3.4255,0,3.4255,3.4257,3.4258,0,0,0,3.414,3.4168,3.4175,3.4138,3.4146,3.4188,3.4167,3.4216,3.4221,3.4241,3.4255,3.4257,3.4256,3.4258,3.4258,3.4381,3.4382,0,0,3.4138,3.4148,3.4172,3.4178,3.4174,3.4166,3.4169,3.4219,3.4234,3.4256,3.4259,3.4257,3.4258,3.4259,3.4381,3.4381,0,0,0,3.4134,3.4146,3.4151,3.4176,3.4183,3.4168,3.4171,3.4232,3.4233,3.4259,3.4258,3.4259,3.426,3.438,3.4381,3.4431,0,0,0,3.4132,3.4144,3.415,3.4157,3.4183,3.4208,3.4183,3.4229,3.4235,3.4257,3.4259,3.426,3.4379,3.438,3.4428,3.4453,0,0,0,3.4132,3.4144,3.4152,3.4157,3.4177,3.4207,3.4211,3.423,3.4234,3.4258,3.426,3.4378,3.438,3.4425,3.4449,3.449,0,0,0,3.4134,3.4195,3.4153,3.4221,3.4176,3.4239,3.4211,3.4256,3.4282,3.4259,3.4379,3.4381,3.4424,3.4446,3.4487,3.4526,3.4544,0,0,3.4217,3.4206,3.4245,3.4209,3.4281,3.4231,3.4311,3.4324,3.4317,3.436,3.4363,3.4429,3.4448,3.4489,3.4637,3.4651,0,0,0,3.4275,3.4303,3.432,3.4347,3.436,3.4373,3.4374,3.4379,3.4416,3.4341,3.4454,3.4465,3.4489,3.4507,3.4519,3.4539,3.439,3.4389,3.4389,3.4406,3.4395,3.4459,3.4452,3.4478,3.4479,3.4499,3.4506,3.4485,3.4512,3.4525,3.4616,3.4639,3.4647,3.4668,3.4544,3.4544,3.4545,3.4545,3.4527,3.4566,3.4538,3.4591,3.4578,3.4621,3.4624,3.4608,3.4646,3.4605,3.4625,3.4583,3.4663,3.4681,3.4548,3.4548,3.4547,3.4547,3.4547,3.4613,3.463,3.4636,3.4674,3.4703,3.4694,3.4732,3.4718,3.4705,3.4724,3.4737,3.4736,3.4734,3.4731,3.4732,3.4732,3.4732,3.4732,3.4733,3.47,3.4705,3.474,3.476,3.4775,3.4794,3.4795,3.4809,3.4822,3.4808,3.4808,3.4785,3.4673,3.4646,3.4738,3.4737,3.4736,3.4736,3.4735,3.4829,3.4797,3.4851,3.4867,3.4889,3.492,3.4901,3.4932,3.4942,3.4961,3.4934,3.4853,3.484,3.483,3.4808,3.4936,3.4936,3.4936,3.4936,3.4902,3.4894,3.4946,3.4972,3.4996,3.4985,3.5045,3.5047,3.5043,3.5048,3.5028,3.4996,3.4987,3.4979,3.4966,3.4945,3.5105,3.5105,3.5106,3.498,3.4975,3.503,3.5027,3.5043,3.5057,3.5114,3.5144,3.5133,3.5112,3.5052,3.5045,3.4994,3.4978,3.4956,3.4937,3.4897,0,0]}]]